TimeCDT,TemperatureF,Dew PointF,Humidity,Sea Level PressureIn,VisibilityMPH,Wind Direction,Wind SpeedMPH,Gust SpeedMPH,PrecipitationIn,Events,Conditions,WindDirDegrees,DateUTC
12:14 AM,39.0,22.6,52,29.92,10.0,West,3.5,-,N/A,,Mostly Cloudy,260,2012-11-01 05:14:00
12:35 AM,38.5,22.1,52,29.91,10.0,West,3.5,-,N/A,,Mostly Cloudy,260,2012-11-01 05:35:00
12:54 AM,37.6,23.0,56,29.91,10.0,West,3.5,-,N/A,,Overcast,270,2012-11-01 05:54:00
1:15 AM,36.0,22.6,58,29.91,10.0,West,3.5,-,N/A,,Mostly Cloudy,280,2012-11-01 06:15:00
1:34 AM,33.6,22.6,64,29.91,10.0,West,3.5,-,N/A,,Scattered Clouds,280,2012-11-01 06:34:00
1:55 AM,33.1,21.4,62,29.91,10.0,Calm,Calm,-,N/A,,Mostly Cloudy,0,2012-11-01 06:55:00
2:14 AM,33.6,22.1,63,29.91,10.0,West,4.6,-,N/A,,Overcast,280,2012-11-01 07:14:00
2:34 AM,32.7,22.8,67,29.92,10.0,WNW,4.6,-,N/A,,Mostly Cloudy,290,2012-11-01 07:34:00
2:54 AM,33.6,22.3,63,29.92,10.0,NW,4.6,-,N/A,,Mostly Cloudy,310,2012-11-01 07:54:00
3:14 AM,36.1,23.0,59,29.91,10.0,WNW,3.5,-,N/A,,Overcast,300,2012-11-01 08:14:00
3:34 AM,36.0,23.7,61,29.91,10.0,Calm,Calm,-,N/A,,Overcast,0,2012-11-01 08:34:00
3:54 AM,39.0,26.6,61,29.91,10.0,NNW,4.6,-,N/A,,Overcast,330,2012-11-01 08:54:00
4:15 AM,40.8,26.2,56,29.92,10.0,NW,6.9,-,N/A,,Overcast,320,2012-11-01 09:15:00
4:34 AM,40.6,26.4,57,29.92,10.0,NNW,8.1,-,N/A,,Overcast,330,2012-11-01 09:34:00
4:55 AM,40.5,27.9,61,29.92,10.0,NNW,6.9,-,N/A,,Overcast,340,2012-11-01 09:55:00
5:14 AM,40.3,28.4,63,29.93,10.0,NNW,10.4,-,N/A,,Overcast,330,2012-11-01 10:14:00
5:34 AM,40.1,29.1,65,29.94,10.0,NNW,6.9,-,N/A,,Overcast,330,2012-11-01 10:34:00
5:54 AM,39.6,29.7,68,29.94,10.0,NNW,5.8,-,N/A,,Overcast,330,2012-11-01 10:54:00
6:14 AM,39.6,30.9,71,29.94,10.0,NNW,8.1,-,N/A,,Overcast,340,2012-11-01 11:14:00
6:34 AM,39.2,31.1,73,29.95,10.0,NNW,5.8,-,N/A,,Overcast,330,2012-11-01 11:34:00
6:54 AM,39.2,32.0,75,29.95,10.0,NNW,8.1,-,N/A,,Overcast,330,2012-11-01 11:54:00
7:15 AM,39.2,32.0,75,29.95,10.0,NW,6.9,-,N/A,,Overcast,320,2012-11-01 12:15:00
7:34 AM,39.2,32.2,76,29.95,10.0,NW,5.8,-,N/A,,Overcast,320,2012-11-01 12:34:00
7:54 AM,38.8,32.0,76,29.96,10.0,NW,6.9,-,N/A,,Overcast,320,2012-11-01 12:54:00
8:15 AM,39.0,31.8,75,29.96,10.0,NNW,5.8,-,N/A,,Overcast,340,2012-11-01 13:15:00
8:34 AM,38.8,30.6,72,29.97,10.0,NNW,5.8,-,N/A,,Overcast,330,2012-11-01 13:34:00
8:54 AM,38.8,31.6,75,29.98,10.0,NW,9.2,16.1,N/A,,Overcast,320,2012-11-01 13:54:00
9:14 AM,38.3,31.1,75,29.99,10.0,NNW,9.2,-,N/A,,Mostly Cloudy,330,2012-11-01 14:14:00
9:34 AM,39.0,31.3,74,29.98,10.0,NNW,8.1,-,N/A,,Scattered Clouds,330,2012-11-01 14:34:00
9:54 AM,39.7,30.2,69,29.98,10.0,NNW,11.5,17.3,N/A,,Clear,330,2012-11-01 14:54:00
10:14 AM,40.8,30.0,65,29.99,10.0,NNW,11.5,17.3,N/A,,Scattered Clouds,340,2012-11-01 15:14:00
10:34 AM,40.5,29.1,64,29.98,10.0,NNW,12.7,19.6,N/A,,Scattered Clouds,340,2012-11-01 15:34:00
10:55 AM,39.6,27.5,62,29.99,10.0,North,11.5,-,N/A,,Mostly Cloudy,350,2012-11-01 15:55:00
11:14 AM,39.4,28.0,64,29.99,10.0,NW,6.9,-,N/A,,Overcast,320,2012-11-01 16:14:00
11:35 AM,39.9,27.5,61,29.99,10.0,NW,10.4,-,N/A,,Overcast,320,2012-11-01 16:35:00
11:54 AM,41.4,25.9,54,29.99,10.0,NNW,12.7,17.3,N/A,,Mostly Cloudy,330,2012-11-01 16:54:00
12:14 PM,41.5,25.3,53,29.99,10.0,NNW,13.8,17.3,N/A,,Mostly Cloudy,340,2012-11-01 17:14:00
12:34 PM,41.2,24.8,52,29.99,10.0,North,11.5,-,N/A,,Overcast,360,2012-11-01 17:34:00
12:54 PM,41.4,25.3,53,29.98,10.0,NNW,11.5,16.1,N/A,,Overcast,340,2012-11-01 17:54:00
1:14 PM,41.4,25.2,53,29.98,10.0,NNW,8.1,-,N/A,,Overcast,340,2012-11-01 18:14:00
1:34 PM,41.7,24.1,50,29.98,10.0,North,10.4,-,N/A,,Overcast,350,2012-11-01 18:34:00
1:55 PM,41.0,24.6,52,29.98,10.0,NNW,10.4,18.4,N/A,,Overcast,340,2012-11-01 18:55:00
2:14 PM,42.8,24.3,48,29.97,10.0,NW,12.7,17.3,N/A,,Overcast,320,2012-11-01 19:14:00
2:34 PM,42.1,24.3,49,29.97,10.0,North,15.0,19.6,N/A,,Overcast,350,2012-11-01 19:34:00
2:55 PM,41.9,23.0,47,29.97,10.0,North,10.4,16.1,N/A,,Mostly Cloudy,350,2012-11-01 19:55:00
3:14 PM,41.7,23.7,49,29.97,10.0,North,11.5,17.3,N/A,,Scattered Clouds,350,2012-11-01 20:14:00
3:34 PM,41.7,23.0,47,29.97,10.0,North,12.7,17.3,N/A,,Scattered Clouds,350,2012-11-01 20:34:00
3:55 PM,40.3,22.6,49,29.98,10.0,North,13.8,18.4,N/A,,Mostly Cloudy,350,2012-11-01 20:55:00
4:14 PM,40.5,23.4,51,29.98,10.0,NNW,12.7,-,N/A,,Mostly Cloudy,340,2012-11-01 21:14:00
4:34 PM,39.6,22.8,51,29.99,10.0,North,9.2,-,N/A,,Overcast,350,2012-11-01 21:34:00
4:55 PM,40.1,22.6,50,30.00,10.0,NNW,10.4,16.1,N/A,,Mostly Cloudy,340,2012-11-01 21:55:00
5:14 PM,38.8,22.6,52,30.00,10.0,NNW,8.1,-,N/A,,Scattered Clouds,340,2012-11-01 22:14:00
5:34 PM,36.9,22.3,56,30.01,10.0,NNW,5.8,-,N/A,,Clear,340,2012-11-01 22:34:00
5:55 PM,36.0,22.1,57,30.01,10.0,North,4.6,-,N/A,,Scattered Clouds,350,2012-11-01 22:55:00
6:14 PM,33.6,22.1,63,30.01,10.0,North,4.6,-,N/A,,Scattered Clouds,350,2012-11-01 23:14:00
6:34 PM,35.2,22.6,60,30.01,10.0,North,4.6,-,N/A,,Mostly Cloudy,350,2012-11-01 23:34:00
6:54 PM,36.0,23.0,59,30.02,10.0,NNW,4.6,-,N/A,,Overcast,340,2012-11-01 23:54:00
7:14 PM,36.5,23.0,58,30.03,10.0,North,5.8,-,N/A,,Overcast,360,2012-11-02 00:14:00
7:34 PM,35.8,23.4,61,30.03,10.0,NNE,4.6,-,N/A,,Overcast,20,2012-11-02 00:34:00
7:54 PM,35.8,23.5,61,30.03,10.0,North,4.6,-,N/A,,Overcast,10,2012-11-02 00:54:00
8:14 PM,35.6,23.4,61,30.04,10.0,Calm,Calm,-,N/A,,Overcast,0,2012-11-02 01:14:00
8:35 PM,35.2,23.4,62,30.03,10.0,North,4.6,-,N/A,,Overcast,350,2012-11-02 01:35:00
8:54 PM,35.1,23.2,62,30.04,10.0,North,4.6,-,N/A,,Overcast,350,2012-11-02 01:54:00
9:14 PM,33.6,23.4,66,30.04,10.0,Calm,Calm,-,N/A,,Mostly Cloudy,0,2012-11-02 02:14:00
9:34 PM,32.5,23.0,68,30.05,10.0,NNW,4.6,-,N/A,,Scattered Clouds,340,2012-11-02 02:34:00
9:54 PM,32.0,22.6,68,30.05,10.0,North,4.6,-,N/A,,Clear,350,2012-11-02 02:54:00
10:14 PM,30.0,21.9,72,30.05,10.0,North,3.5,-,N/A,,Clear,360,2012-11-02 03:14:00
10:34 PM,28.9,21.6,74,30.06,10.0,North,5.8,-,N/A,,Clear,360,2012-11-02 03:34:00
10:54 PM,27.7,21.7,78,30.06,10.0,North,6.9,-,N/A,,Clear,10,2012-11-02 03:54:00
11:14 PM,28.8,22.3,77,30.06,10.0,North,5.8,-,N/A,,Clear,360,2012-11-02 04:14:00
11:34 PM,28.9,22.1,76,30.07,10.0,North,5.8,-,N/A,,Clear,360,2012-11-02 04:34:00
11:55 PM,27.1,21.7,80,30.07,10.0,North,3.5,-,N/A,,Clear,360,2012-11-02 04:55:00